Miscellaneous Local Product
Issued by NWS Hastings, NE

Home | Current Version | Previous Version | Text Only | Print | Product List | Glossary On
Versions: 1 2 3 4 5 6 7 8 9 10 11 12 13 14 15 16 17 18 19 20 21 22 23 24 25 26 27 28 29 30 31 32 33 34 35 36 37 38 39 40 41 42 43 44 45 46 47 48 49 50
000
AXUS43 KGID 060102
MISGRI

GID CWA HOURLY WEATHER ROUNDUP
NATIONAL WEATHER SERVICE HASTINGS NE
800 PM CDT SUN JUL 05 2015

NOTE: "FAIR" INDICATES FEW OR NO CLOUDS BELOW 12,000 FEET WITH NO
SIGNIFICANT WEATHER AND/OR OBSTRUCTIONS TO VISIBILITY.

...SOUTH CENTRAL NEBRASKA...

CITY           SKY/WX    TMP DP  RH WIND       PRES   REMARKS
GRAND ISLAND   MOSUNNY   89  70  53 SE10      29.74R HX  94
HASTINGS       MOSUNNY   92  64  39 S12       29.74S HX  93
KEARNEY        MOSUNNY   90  66  45 S12       29.73R HX  92
ORD            MOSUNNY   88  72  58 SE9       29.70F HX  94
YORK           SUNNY     90  72  55 S12       29.76R HX  96
AURORA         MOSUNNY   87  71  58 SE12      29.75R HX  93
LEXINGTON      PTSUNNY   91  67  45 SW17G23   29.73R HX  93
HOLDREGE       PTSUNNY   91  61  35 S13       29.73S HX  91
HEBRON         CLEAR     92  62  36 S10       29.76S HX  93

...NEBRASKA PANHANDLE...

CITY           SKY/WX    TMP DP  RH WIND       PRES   REMARKS
CHADRON        CLOUDY    74  63  68 N17G28    29.92R
ALLIANCE       LGT RAIN  67  62  84 NW24G32   29.95R
SCOTTSBLUFF    LGT RAIN  65  64  97 N23G33    29.94R
SIDNEY         CLOUDY    72  56  57 NW18G24   29.92R

...WESTERN AND NORTH CENTRAL NEBRASKA...

CITY           SKY/WX    TMP DP  RH WIND       PRES   REMARKS
VALENTINE      CLOUDY    87  69  54 SE9       29.69F HX  91
AINSWORTH      CLOUDY    84  70  62 SE7       29.72F
ONEILL         PTSUNNY   87  75  66 SE8       29.75F HX  96
BROKEN BOW     CLOUDY    88  72  58 SE9       29.71F HX  94
IMPERIAL       CLOUDY    84  57  39 W15G24    29.75R
NORTH PLATTE   CLOUDY    88  69  53 E9        29.70F HX  92
MCCOOK         CLOUDY    82  62  50 E14       29.77R

...EASTERN NEBRASKA...

CITY           SKY/WX    TMP DP  RH WIND       PRES   REMARKS
NORFOLK        PTSUNNY   85  76  74 SE10      29.76F HX  94
SO SIOUX CITY  PTCLDY    86  74  67 SE10      29.77F HX  94
TEKAMAH        PTCLDY    88  75  65 SE17      29.79R HX  97
COLUMBUS       MOSUNNY   88  73  62 SE8G17    29.77S HX  96
ALBION         SUNNY     86  73  65 SE9       29.75S HX  93
OMAHA EPPLEY   MOCLDY    88  74  63 SE21G28   29.79F HX  96
OFFUTT AFB     PTCLDY    86  74  68 SE13      29.80R HX  94
MILLARD        PTCLDY    87  74  65 SE12G17   29.79S HX  95
LINCOLN        PTCLDY    88  73  61 SE15      29.78S HX  95
NEBRASKA CITY  CLEAR     86  66  51 S14       29.82F
BEATRICE       CLEAR     88  73  60 SE18G29   29.78F HX  96
FALLS CITY     PTCLDY    86  74  67 SE9       29.83S HX  94

...NORTHERN KANSAS...

CITY           SKY/WX    TMP DP  RH WIND       PRES   REMARKS
GOODLAND       TSTM      84  59  42 SW22G29   29.81R
HILL CITY      CLOUDY    96  58  27 S17G30    29.75S HX  95
NORTON         CLEAR     93  52  24 S13G20    29.74R HX  90
PHILLIPSBURG   SUNNY     97  54  23 S17G24    29.74R HX  94
SMITH CENTER   SUNNY     91  57  31 S15G23    29.75S HX  90
HAYS           PTSUNNY   93  59  31 S17G24    29.79S HX  92
RUSSELL        LGT RAIN  92  61  35 S18       29.77S HX  92
CONCORDIA      CLEAR     92  62  36 S16       29.78R HX  92
SALINA         CLEAR     95  63  34 S14       29.79S HX  96
TOPEKA         CLEAR     88  74  63 SE8       29.85S HX  96



USA.gov is the U.S. government's official web portal to all federal, state and local government web resources and services.